sat.trackr.live / text

‹ back to catalog

THEMIS A

NORAD 30580 · 2007-004A

PAYLOAD ACTIVE UNKNOWN

§ Identity

Operator
Country
US
Launch date
2007-02-17
Launch site
AFETR
Launch vehicle
Mass (kg)
RCS (m²)
0.40

External: N2YO · Heavens-Above · Gunter

§ Orbital elements

Epoch: 2026-09-08T11:14:48.568416Z

Period
1,639.27 min
Inclination
9.2611°
Eccentricity
0.8337190
Mean motion
0.87844106 rev/d
Perigee alt
1,279.6 km
Apogee alt
78,070.5 km
Semi-major
46,053.2 km
B*
0.0000e+0
RAAN
102.3993°
Arg perigee
215.6563°
Mean anomaly
39.7128°
Rev number
4,201

§ Raw data

THEMIS A1 30580U 07004A   26251.46861769 -.00000437  00000+0  00000+0 0  99932 30580   9.2611 102.3993 8337190 215.6563  39.7128  0.87844106 42018

JSON: /api/v1/satellites/30580 · /tle

For live sub-satellite position, see the globe view (requires WebGL).

§ Visibility from observer

Set your observer location to see the next 7 days of passes ≥ 10°. The values pass through the URL so the page stays shareable.

No JS? Fill the form by hand. The geolocation button needs JavaScript.